Terug naar catalogus

STARLINK-4200

ActiefCommunicatieVLEO
NORAD 52876·PAYLOAD·🇺🇸 United States

Gelanceerd Jun 17, 2022 vanaf Cape Canaveral Space Force Station

Loading…

Volgende Passages (komende 24 uur)

TLE

VersSource: CelesTrak SupGP

Epoch: Sep 14, 2026, 21:09 UTC

1 52876C 22062AY  26257.88173611 -.00030273  00000+0 -97333-3 0  2578
2 52876  53.1562 231.0309 0001210  95.1174 216.8098 15.31722543    19

Volg STARLINK-4200 in realtime met AllMySat

Download on the App Store